Content
SEND FEEDBACK

Daily
Averages
Monthly
Summary
United States of America

HOWELLS, NEW YORK


Home > North America > United States > New York
Elevation: 614 feet     Latitude: 41 27N     Longitude: 074 26W

WEATHER
 
SELECT A DAY
Number of Records: 184,991;   Date Range: 12/17/97 - 10/22/14
 
SHARE

PRINT THIS DATA

[ ← Previous Day ]
WEATHER ALMANAC - MARCH 21, 2014
[ Next Day → ]
[ °C ]   °F
Weather ElementAverageHighLow
Temperature38.1 °F46 °F (3:54 pm)27 °F (10:54 pm)
Dewpoint19.2 °F21 °F (1:54 am)18 °F (7:54 am)
Humidity48 %78 % (10:54 pm)34 % (3:54 pm)
Barometer29.97 in30.06 in (11:54 pm)29.87 in (1:54 am)
Wind Speed9.1 mph15 mph (11:54 am)
Wind Gust25.3 mph (11:54 am)
Weather ElementAverage
Visibility10 mi
Wind DirectionWSW (260.8 °)

Weather ElementTotal
Precipitation---
Heating Degree Days28.5 (Base 65)
Averaged from 24 records on March 21, 2014
WEATHER CONDITIONS BREAKOUT
WIND DIRECTION BREAKOUT
WEATHER BY HOUR - MARCH 21, 2014
[ °C ]   °F
Local TimeTemperatureDewpointHumidityBarometerVisibilityWind DirectionWind SpeedGust SpeedPrecipitationEventsConditions
1:54 AM37.0 °F21.0 °F52 %29.87 in10.0 miWest (270°)9.2 mphOvercast
2:54 AM37.0 °F19.9 °F50 %29.88 in10.0 miWNW (300°)13.8 mph21.9 mphOvercast
3:54 AM37.0 °F19.9 °F50 %29.88 in10.0 miWNW (300°)6.9 mphOvercast
4:54 AM36.0 °F19.0 °F50 %29.90 in10.0 miWNW (290°)12.7 mph20.7 mphOvercast
5:54 AM36.0 °F19.9 °F52 %29.91 in10.0 miWNW (290°)9.2 mphOvercast
6:54 AM36.0 °F19.0 °F50 %29.93 in10.0 miWNW (290°)9.2 mphOvercast
7:54 AM35.1 °F18.0 °F50 %29.94 in10.0 miWNW (290°)11.5 mphMostly Cloudy
8:54 AM37.0 °F18.0 °F46 %29.96 in10.0 miWest (280°)11.5 mph19.6 mphScattered Clouds
9:54 AM37.0 °F18.0 °F46 %29.96 in10.0 miWNW (290°)10.4 mph23.0 mphScattered Clouds
10:54 AM37.9 °F18.0 °F45 %29.97 in10.0 miWNW (300°)12.7 mph17.3 mphScattered Clouds
11:54 AM39.9 °F18.0 °F41 %29.98 in10.0 miNW (320°)15.0 mph25.3 mphMostly Cloudy
12:54 PM42.1 °F18.0 °F38 %29.97 in10.0 miWNW (290°)15.0 mph21.9 mphClear
1:54 PM44.1 °F19.0 °F37 %29.97 in10.0 miNW (310°)9.2 mph23.0 mphClear
2:54 PM45.0 °F19.0 °F36 %29.96 in10.0 miWNW (300°)12.7 mph19.6 mphClear
3:09 PM44.1 °F19.0 °F37 %29.95 in10.0 miWest (270°)13.8 mph21.9 mphClear
3:54 PM46.0 °F19.0 °F34 %29.96 in10.0 miWNW (300°)9.2 mphClear
4:54 PM45.0 °F18.0 °F34 %29.97 in10.0 miNW (310°)12.7 mphClear
5:54 PM45.0 °F19.0 °F36 %30.00 in10.0 miNW (320°)6.9 mphClear
6:54 PM43.0 °F18.0 °F37 %30.02 in10.0 miNW (320°)6.9 mphClear
7:54 PM37.0 °F19.9 °F50 %30.02 in10.0 miNNW (330°)6.9 mphClear
8:54 PM34.0 °F19.9 °F56 %30.05 in10.0 miCalmClear
9:54 PM30.0 °F21.0 °F69 %30.05 in10.0 miCalmClear
10:54 PM27.0 °F21.0 °F78 %30.03 in10.0 miWNW (290°)3.5 mphClear
11:54 PM27.0 °F21.0 °F78 %30.06 in10.0 miCalmClear
Hourly data recorded from KMGJ, located miles away from Howells, New York







STORIES FROM OUR PARTNERS